Weather History for Indianapolis, IN

Change the Weather History Date:

Friday, January 25, 2013

  Actual Average (KEYE) Record (KEYE)
Temperature  
Mean Temperature 22 °F 28 °F  
Max Temperature 26 °F 35 °F 48 °F (2005)
Min Temperature 18 °F 21 °F 0 °F (2008)
Degree Days  
Heating Degree Days 43 37  
Month to date heating degree days 925  
Since 1 July heating degree days 2981  
Cooling Degree Days 0 0  
Month to date cooling degree days 0  
Year to date cooling degree days 0  
Moisture  
Dew Point 12 °F    
Average Humidity 67    
Maximum Humidity 83    
Minimum Humidity 47    
Precipitation  
Precipitation 0.02 in 0.04 in 0.21 in (2012)
Month to date precipitation 2.00  
Year to date precipitation 2.00  
Sea Level Pressure  
Sea Level Pressure 30.13 in    
Wind  
Wind Speed 9 mph (SSW)    
Max Wind Speed 13 mph    
Max Gust Speed 18 mph    
Visibility 9 miles    
Events Snow    
T = Trace of Precipitation, MM = Missing Value Source: NWS Daily Summary

Daily Weather History Graph

Daily Weather History Graph

Search for Another Location

Airport:

Trip Planner

Search our weather history database for the weather conditions in past years. The results will help you decide how hot, cold, wet, or windy it might be!

Date:

Astronomy

Jan. 25, 2013 Rise Set
Actual Time 7:59 AM EST 5:56 PM EST
Civil Twilight 7:30 AM EST 6:25 PM EST
Nautical Twilight 6:57 AM EST 6:57 PM EST
Astronomical Twilight 6:25 AM EST 7:30 PM EST
Moon 4:52 PM EST (1/25) 6:38 AM EST (1/25)
Length of Visible Light 10h 55m
Length of Day
9h 56m
Waxing Gibbous, 98% of the Moon is Illuminated
Jan 25
Waxing Gibbous
Jan 26
Full
Feb 3
Last Quarter
Feb 10
New
Feb 17
First Quarter

Hourly Weather History & Observations

Time (EST) Temp. Windchill Dew Point Humidity Pressure Visibility Wind Dir Wind Speed Gust Speed Precip Events Conditions
12:15 AM 20.7 °F 10.2 °F 4.8 °F 50% 30.37 in 10.0 mi ESE 9.2 mph - N/A   Clear
12:35 AM 20.3 °F 9.0 °F 4.5 °F 50% 30.35 in 10.0 mi ESE 10.4 mph - N/A   Clear
12:55 AM 20.3 °F 8.3 °F 4.1 °F 50% 30.34 in 10.0 mi SE 11.5 mph 16.1 mph N/A   Clear
1:15 AM 20.3 °F 9.0 °F 3.9 °F 49% 30.35 in 10.0 mi ESE 10.4 mph - N/A   Clear
1:35 AM 20.5 °F 9.2 °F 3.9 °F 49% 30.34 in 10.0 mi SE 10.4 mph - N/A   Clear
1:55 AM 20.7 °F 11.0 °F 3.2 °F 47% 30.34 in 10.0 mi SE 8.1 mph - N/A   Clear
2:15 AM 20.7 °F 11.9 °F 3.2 °F 47% 30.33 in 10.0 mi SE 6.9 mph - N/A   Scattered Clouds
2:35 AM 20.7 °F 9.5 °F 3.7 °F 48% 30.31 in 10.0 mi ESE 10.4 mph - N/A   Mostly Cloudy
2:55 AM 20.8 °F 11.2 °F 3.9 °F 48% 30.32 in 10.0 mi SE 8.1 mph - N/A   Overcast
3:15 AM 20.8 °F 11.2 °F 4.3 °F 49% 30.31 in 10.0 mi SE 8.1 mph - N/A   Overcast
3:35 AM 20.8 °F 10.4 °F 4.1 °F 49% 30.30 in 10.0 mi SE 9.2 mph - N/A   Overcast
3:55 AM 20.8 °F 11.2 °F 4.1 °F 49% 30.28 in 10.0 mi SE 8.1 mph - N/A   Overcast
4:15 AM 20.8 °F 9.7 °F 4.5 °F 49% 30.25 in 10.0 mi SE 10.4 mph - N/A   Overcast
4:35 AM 20.8 °F 10.4 °F 4.6 °F 50% 30.23 in 10.0 mi SE 9.2 mph 16.1 mph N/A   Overcast
4:55 AM 21.0 °F 9.3 °F 4.5 °F 49% 30.21 in 10.0 mi SE 11.5 mph - N/A   Overcast
5:15 AM 21.0 °F 8.6 °F 4.6 °F 49% 30.20 in 10.0 mi SE 12.7 mph - N/A   Overcast
5:35 AM 21.2 °F 11.7 °F 4.6 °F 49% 30.19 in 10.0 mi SE 8.1 mph 16.1 mph N/A   Overcast
5:55 AM 21.2 °F 10.9 °F 5.2 °F 50% 30.18 in 10.0 mi SE 9.2 mph - N/A   Overcast
6:15 AM 21.2 °F 10.9 °F 5.2 °F 50% 30.18 in 10.0 mi SSE 9.2 mph - N/A   Overcast
6:35 AM 21.2 °F 11.7 °F 5.5 °F 51% 30.17 in 10.0 mi SSE 8.1 mph - N/A   Overcast
6:55 AM 20.3 °F 8.3 °F 8.6 °F 61% 30.15 in 3.0 mi SSE 11.5 mph 18.4 mph N/A Snow Light Snow
7:15 AM 19.2 °F 9.3 °F 12.2 °F 74% 30.15 in 2.0 mi SSE 8.1 mph - N/A Snow Light Snow
7:35 AM 19.0 °F 10.0 °F 13.3 °F 78% 30.15 in 1.5 mi SSE 6.9 mph - N/A Snow Light Snow
7:55 AM 18.7 °F 9.5 °F 13.8 °F 81% 30.13 in 1.8 mi SSE 6.9 mph - N/A Snow Light Snow
8:35 AM 18.7 °F 11.9 °F 14.2 °F 83% 30.13 in 0.8 mi SE 4.6 mph - 0.02 in Snow Light Snow
8:55 AM 19.0 °F 12.3 °F 14.5 °F 83% 30.13 in 3.0 mi SSE 4.6 mph - 0.02 in Snow Light Snow
9:15 AM 19.4 °F 12.8 °F 14.7 °F 82% 30.12 in 10.0 mi SE 4.6 mph - N/A Snow Light Snow
9:35 AM 19.9 °F 12.1 °F 14.5 °F 80% 30.12 in 10.0 mi SSE 5.8 mph - N/A   Overcast
9:55 AM 19.9 °F 14.9 °F 14.5 °F 80% 30.13 in 10.0 mi South 3.5 mph - N/A   Overcast
10:15 AM 20.1 °F - 14.5 °F 79% 30.14 in 10.0 mi Calm Calm - N/A   Overcast
10:35 AM 20.7 °F 14.2 °F 14.5 °F 77% 30.13 in 7.0 mi South 4.6 mph - N/A   Overcast
10:55 AM 21.0 °F 13.4 °F 14.9 °F 77% 30.12 in 7.0 mi South 5.8 mph - N/A Snow Light Snow
11:15 AM 21.6 °F 14.0 °F 15.1 °F 76% 30.12 in 10.0 mi South 5.8 mph - N/A   Overcast
11:35 AM 22.1 °F 14.7 °F 15.3 °F 75% 30.11 in 10.0 mi SSW 5.8 mph - N/A   Overcast
11:55 AM 22.8 °F 15.5 °F 15.6 °F 74% 30.10 in 10.0 mi SSW 5.8 mph - N/A   Overcast
12:15 PM 23.4 °F 14.3 °F 15.6 °F 72% 30.09 in 10.0 mi WSW 8.1 mph - N/A   Overcast
12:35 PM 23.5 °F 13.7 °F 15.4 °F 71% 30.08 in 10.0 mi WSW 9.2 mph - N/A   Overcast
12:55 PM 23.9 °F 13.5 °F 15.8 °F 71% 30.07 in 10.0 mi WSW 10.4 mph - N/A   Overcast
1:15 PM 23.9 °F 14.2 °F 15.8 °F 71% 30.06 in 10.0 mi WSW 9.2 mph - N/A   Overcast
1:35 PM 24.3 °F 13.9 °F 15.6 °F 70% 30.06 in 10.0 mi WSW 10.4 mph - N/A   Overcast
1:55 PM 24.8 °F 15.3 °F 16.0 °F 69% 30.04 in 10.0 mi WSW 9.2 mph - N/A   Overcast
2:15 PM 25.2 °F 15.1 °F 16.0 °F 68% 30.04 in 10.0 mi West 10.4 mph - N/A   Overcast
2:35 PM 25.5 °F 15.5 °F 16.5 °F 69% 30.03 in 10.0 mi WSW 10.4 mph - N/A   Overcast
2:55 PM 25.7 °F 15.7 °F 16.5 °F 68% 30.03 in 10.0 mi West 10.4 mph - N/A   Overcast
3:15 PM 25.5 °F 15.5 °F 15.8 °F 67% 30.03 in 10.0 mi West 10.4 mph 16.1 mph N/A   Overcast
3:35 PM 25.7 °F 15.7 °F 16.2 °F 67% 30.03 in 10.0 mi West 10.4 mph - N/A   Overcast
3:55 PM 26.1 °F 15.6 °F 16.7 °F 68% 30.04 in 10.0 mi West 11.5 mph - N/A   Overcast
4:15 PM 26.1 °F 16.8 °F 16.5 °F 67% 30.04 in 10.0 mi WSW 9.2 mph - N/A   Overcast
4:35 PM 26.1 °F 15.6 °F 16.7 °F 68% 30.04 in 10.0 mi West 11.5 mph - N/A   Overcast
4:55 PM 26.1 °F 15.6 °F 16.7 °F 68% 30.05 in 10.0 mi WSW 11.5 mph 17.3 mph N/A   Overcast
5:15 PM 26.2 °F 17.1 °F 16.7 °F 67% 30.04 in 10.0 mi WSW 9.2 mph - N/A   Overcast
5:35 PM 26.2 °F 16.4 °F 17.1 °F 68% 30.04 in 10.0 mi WSW 10.4 mph - N/A   Overcast
5:55 PM 26.2 °F 17.8 °F 17.4 °F 69% 30.03 in 10.0 mi SW 8.1 mph - N/A   Overcast
6:15 PM 26.4 °F 18.0 °F 17.6 °F 69% 30.03 in 10.0 mi SW 8.1 mph - N/A   Overcast
6:35 PM 26.6 °F 19.1 °F 17.6 °F 69% 30.04 in 10.0 mi SW 6.9 mph - N/A   Overcast
6:55 PM 23.4 °F 15.2 °F 15.4 °F 72% 30.05 in 10.0 mi SW 6.9 mph - N/A   Scattered Clouds
7:15 PM 21.4 °F 12.8 °F 14.7 °F 75% 30.06 in 10.0 mi SW 6.9 mph - N/A   Clear
7:35 PM 20.5 °F 12.8 °F 13.8 °F 75% 30.07 in 10.0 mi SW 5.8 mph - N/A   Clear
7:55 PM 21.2 °F 13.6 °F 14.7 °F 76% 30.06 in 10.0 mi SSW 5.8 mph - N/A   Clear
8:15 PM 20.3 °F 13.8 °F 13.8 °F 76% 30.06 in 10.0 mi SSW 4.6 mph - N/A   Clear
8:35 PM 20.3 °F 12.5 °F 14.2 °F 77% 30.07 in 10.0 mi SSW 5.8 mph - N/A   Clear
8:55 PM 20.1 °F 12.3 °F 14.0 °F 77% 30.07 in 10.0 mi SSW 5.8 mph - N/A   Clear
9:15 PM 20.1 °F 12.3 °F 13.8 °F 77% 30.07 in 10.0 mi SSW 5.8 mph - N/A   Clear
9:35 PM 21.4 °F 12.8 °F 15.1 °F 77% 30.06 in 10.0 mi SSW 6.9 mph - N/A   Clear
9:55 PM 21.6 °F 12.1 °F 15.1 °F 76% 30.06 in 10.0 mi SSW 8.1 mph - N/A   Clear
10:15 PM 21.6 °F 13.0 °F 15.1 °F 76% 30.06 in 10.0 mi SSW 6.9 mph - N/A   Clear
10:35 PM 21.6 °F 12.1 °F 14.9 °F 76% 30.06 in 10.0 mi SW 8.1 mph - N/A   Clear
10:55 PM 20.3 °F 13.8 °F 14.4 °F 78% 30.07 in 10.0 mi WSW 4.6 mph - N/A   Clear
11:15 PM 24.1 °F 15.2 °F 16.5 °F 73% 30.08 in 10.0 mi West 8.1 mph 11.5 mph N/A   Clear
11:35 PM 24.1 °F 14.4 °F 16.3 °F 72% 30.08 in 10.0 mi West 9.2 mph - N/A   Clear
11:55 PM 23.9 °F 15.0 °F 16.3 °F 73% 30.09 in 10.0 mi West 8.1 mph - N/A   Clear